星链-30556 (STARLINK-30556 )

导读

STARLINK-30556是美国SpaceX星链星座的一颗卫星,于2023年10月9日发射,部署在近地轨道,属于星链第二代组网卫星。它采用平板设计,搭载Ku/Ka波段通信载荷与激光星间链路,配备霍尔推进器和自主避撞系统,为全球提供低延迟高速互联网服务,退役后会受控离轨再入大气层焚毁。

基本信息
目录编号:
58031
目录名称:
STARLINK-30556
国际标识:
2023-156D
轨道中心:
EARTH
卫星名称:
星链-30556
卫星全名:
星链-30556 (STARLINK-30556 )
卫星状态:
在轨 (已飞行985 天)
发射日期:
2023-10-09 UTC
国别 :
美国 (US)
星等 :
--
轨道信息
数据来源 国际轨道数据 AOE轨道数据
星历时间 2026-06-20T01:39:44+0800
16小时前
查看轨道信息
2026-06-14T17:00:00+0800
6天前
查看轨道信息
半长轴 6840.851km 6840.903km
偏心率 0.0001263 0.0001543
轨道倾角 53.162° 53.164°
近地点辐角 106.270° 79.494°
升交点赤经 333.043° 358.103°
平近点角 253.844° 171.319°
近地点 461.85km 461.71km
远地点 463.578km 463.822km
周期 93.848分钟 93.849分钟
每日圈数 15.343967 15.343791
详细信息
固有亮度:
5
最大亮度:
0.3
卫星平台:
Starlink v2.0 mini
覆盖范围:
全球
运营商:
太空探索技术公司
运营商所在国:
美国
制造商(研发单位):
太空探索技术公司
制造商所在国:
美国
使用方式:
暂无
卫星简介
星链(Starlink)计划是由太空探索技术公司(SpaceX)提出的一个巨型低轨卫星互联网星座项目,计划在2019年至2024年间在太空搭建由约1.2万颗卫星组成的“星链”网络,其中1584颗将部署在地球上空550千米处的近地轨道,并从2020年开始工作。该卫星仍在工作。
2D轨道图
3D轨道图
轨道高度分析图
轨道倾角分析图
轨道综合分析图
查看轨道综合分析图